Flag for United Kingdom Weather past 2 weeks in Stornoway, Scotland, United Kingdom

Now
52 °F

Passing clouds.


Feels Like: 49 °F
Forecast: 50 / 55 °F
Wind: 7 mph from Northwest

Location: Stornoway

Current Time: Sep 4, 2015 at 5:41:10 AM

Latest Report: Sep 4, 2015 at 4:50 AM


Visibility: N/A

Pressure: 30.15 "Hg

Humidity: 77%

Dew point: 45 °F

Location of StornowayLocation

Historic Weather in Stornoway — Graph

°F

Stornoway temperature yesterday

Maximum temperature yesterday: 54 °F (at 12:50 PM)
Minimum temperature yesterday: 48 °F (at 2:50 AM)
Average temperature yesterday: 51 °F

Past Weeks' High & Low Weather Summary

 TemperatureHumidityPressure
High70 °F (Aug 23, 2:20 PM)100% (Aug 25, 3:50 PM)30.21 "Hg (Aug 25, 3:50 PM)
Low43 °F (Aug 26, 1:20 AM)56% (Aug 23, 5:20 PM)29.24 "Hg (Aug 26, 2:50 PM)
Average55 °F79%29.78 "Hg
* Reported Aug 20 4:20 AM — Sep 4 4:20 AM, Stornoway, Weather by CustomWeather, © 2015

Note: Actual official high and low records may vary slightly from our data, if they occured in-between our weather recording intervals... More about our weather records

Advertising

Stornoway weather history for previous 24 hours

 ConditionsComfort  
Time TempWeatherWind HumidityBarometerVisibility
4:20 AM
Fri, Sep 4
50 °FPassing clouds.6 mph82%30.15 "HgN/A
3:50 AM50 °FPassing clouds.7 mph82%30.15 "HgN/A
3:20 AM50 °FPassing clouds.3 mph82%30.15 "HgN/A
2:50 AM50 °FPassing clouds.3 mph82%30.15 "HgN/A
2:20 AM48 °FPassing clouds.5 mph82%30.18 "HgN/A
1:50 AM50 °FPassing clouds.8 mph76%30.18 "HgN/A
1:20 AM50 °FOvercast.6 mph76%30.18 "HgN/A
12:50 AM50 °FOvercast.7 mph76%30.18 "HgN/A
12:20 AM50 °FPassing clouds.7 mph76%30.18 "HgN/A
11:50 PM
Thu, Sep 3
50 °FOvercast.8 mph82%30.18 "HgN/A
11:20 PM50 °FOvercast.9 mph76%30.18 "HgN/A
10:20 PM50 °FOvercast.10 mph76%30.18 "HgN/A
9:50 PM52 °FOvercast.16 mph72%30.18 "HgN/A
9:20 PM50 °FPassing clouds.13 mph76%30.18 "HgN/A
8:50 PM50 °FOvercast.12 mph76%30.18 "HgN/A
8:20 PM50 °FOvercast.12 mph76%30.18 "HgN/A
7:50 PM52 °FScattered showers. Partly sunny.14 mph94%30.15 "HgN/A
7:20 PM52 °FDrizzle. Broken clouds.15 mph94%30.15 "HgN/A
6:50 PM52 °FDrizzle. Broken clouds.16 mph94%30.15 "HgN/A
6:20 PM52 °FScattered showers. Broken clouds.17 mph94%30.15 "HgN/A
5:50 PM52 °FScattered showers. Broken clouds.17 mph94%30.15 "HgN/A
5:20 PM54 °FDrizzle. Broken clouds.17 mph94%30.15 "Hg6 mi
4:50 PM54 °FDrizzle. Broken clouds.16 mph94%30.15 "Hg6 mi
4:20 PM52 °FLight rain. Broken clouds.17 mph77%30.15 "HgN/A
3:50 PM54 °FLight rain. Broken clouds.16 mph77%30.15 "HgN/A
3:20 PM52 °FLight rain. Broken clouds.16 mph77%30.15 "HgN/A
2:50 PM52 °FLight rain. Broken clouds.16 mph77%30.15 "HgN/A
2:20 PM52 °FLight rain. Broken clouds.16 mph77%30.15 "HgN/A
1:50 PM52 °FScattered showers. Partly sunny.16 mph77%30.15 "HgN/A
1:20 PM54 °FScattered showers. Partly sunny.17 mph77%30.15 "HgN/A
12:50 PM54 °FBroken clouds.17 mph72%30.15 "HgN/A
12:20 PM52 °FBroken clouds.18 mph77%30.15 "HgN/A
11:50 AM52 °FBroken clouds.18 mph77%30.15 "HgN/A
11:20 AM52 °FBroken clouds.18 mph77%30.15 "HgN/A
10:50 AM52 °FBroken clouds.16 mph77%30.15 "HgN/A
10:20 AM52 °FBroken clouds.16 mph77%30.15 "HgN/A
9:50 AM52 °FBroken clouds.17 mph77%30.15 "HgN/A
9:20 AM52 °FBroken clouds.15 mph77%30.15 "HgN/A
8:50 AM50 °FBroken clouds.15 mph82%30.15 "HgN/A
8:20 AM50 °FPartly sunny.15 mph82%30.15 "HgN/A
7:50 AM50 °FDrizzle. Broken clouds.17 mph82%30.15 "HgN/A
7:20 AM50 °FPartly cloudy.15 mph82%30.15 "HgN/A
6:50 AM48 °FPartly cloudy.16 mph82%30.15 "HgN/A
6:20 AM48 °FPartly cloudy.17 mph82%30.12 "Hg4 mi
5:50 AM48 °FPassing clouds.14 mph82%30.12 "HgN/A
5:20 AM48 °FPassing clouds.15 mph82%30.12 "HgN/A
Weather by CustomWeather, © 2015

See weather overviewHow to use our weather pages